Location: Lake Sonoma
(38.7200°N, 123.0564°W)
Time: 01:32:24
(UTC-07:00)

ISS - Visible Passes

Search period start: 28 May 2017 00:00
Search period end: 07 June 2017 00:00
Orbit: 402 x 408 km, 51.6° (Epoch: 28 May)

Date Brightness Start Highest point End Pass type
(mag) Time Alt. Az. Time Alt. Az. Time Alt. Az.
28 May -0.7 02:01:57 10° NNW 02:02:44 14° NNW 02:02:44 14° NNW visible
28 May -0.6 21:54:56 10° WNW 21:57:00 15° NNW 21:59:03 10° NNE visible
29 May -0.6 01:10:15 10° NNW 01:11:38 15° N 01:11:38 15° N visible
29 May -1.0 21:02:05 10° W 21:04:43 21° NNW 21:07:21 10° NNE visible
30 May -0.6 00:18:40 10° N 00:19:57 12° NNE 00:20:51 11° NNE visible
30 May -0.4 21:48:51 10° NNW 21:49:46 11° NNW 21:50:42 10° N visible
31 May -0.6 01:02:09 10° NNW 01:02:50 14° NNW 01:02:50 14° NNW visible
01 Jun -1.0 00:10:23 10° NNW 00:12:17 17° NNE 00:12:17 17° NNE visible
01 Jun -0.8 23:18:42 10° NNW 23:20:18 13° NNE 23:21:45 10° NE visible
02 Jun -0.5 00:54:10 10° NW 00:54:24 11° NW 00:54:24 11° NW visible
02 Jun -0.6 22:27:17 10° N 22:27:52 10° N 22:28:27 10° NNE visible
03 Jun -1.3 00:02:15 10° NNW 00:03:55 22° N 00:03:55 22° N visible
03 Jun -1.5 23:10:24 10° NNW 23:12:55 20° NNE 23:13:28 19° NE visible
04 Jun -1.0 22:18:39 10° NNW 22:20:32 14° NNE 22:22:24 10° NE visible
04 Jun -1.5 23:54:15 10° NW 23:55:41 23° NW 23:55:41 23° NW visible
05 Jun -0.9 21:27:02 10° N 21:28:04 11° NNE 21:29:07 10° NNE visible
05 Jun -2.6 23:02:15 10° NW 23:05:17 35° NNE 23:05:17 35° NNE visible
06 Jun -1.8 22:10:20 10° NNW 22:13:01 22° NNE 22:14:55 14° ENE visible
06 Jun -1.3 23:46:29 10° WNW 23:47:34 18° WNW 23:47:34 18° WNW visible
